Temp_Advection
nan nan nan nan nan nan nan nan nan nan nan nan nan nan nan nan nan nan nan nan nan nan nan nan nan nan nan nan nan nan nan nan nan nan nan nan nan nan nan nan nan nan nan
nan 1 0 -0 -0 0 1 -0 0 -0 -0 0 0 0 0 0 0 0 -0 -0 -0 -0 -0 -0 -0 0 -0 -0 -0 0 0 0 -0 -1 -0 -1 0 0 0 0 0 0 nan
nan 1 1 0 -0 -1 -1 2 1 0 -0 0 0 0 0 0 0 0 0 0 -0 -0 -0 0 -0 -0 -0 -0 -0 -0 0 0 -0 -1 -1 -0 -1 -0 0 0 -0 -0 nan
nan 1 1 1 0 0 0 2 0 0 0 0 0 1 0 0 0 0 -0 0 0 0 0 0 0 -0 -0 -0 -0 -0 0 -0 -0 -1 -1 0 -0 -0 -0 -0 -0 -0 nan
nan 0 1 1 0 1 1 1 0 0 0 1 1 1 1 0 0 0 -0 -0 -0 -0 0 0 0 0 -0 -0 -0 0 0 0 -0 -0 -1 -1 -0 -0 -0 -0 -0 -0 nan
nan -0 0 0 1 1 1 0 1 -0 0 0 1 1 0 0 0 0 -0 -0 -0 -0 -0 0 0 0 -0 -0 -0 0 0 0 -0 -0 -1 -1 -1 -1 0 0 -0 0 nan
nan -0 0 1 1 1 1 -0 2 0 1 0 0 1 0 0 0 0 0 -0 -0 -0 -0 0 0 -0 -0 -0 -0 0 0 0 -0 -0 -0 -1 -1 -0 -0 0 0 -0 nan
nan 1 1 1 1 1 -0 1 2 1 -0 0 0 1 1 0 0 0 -0 -0 -0 -0 0 0 0 -0 -0 -0 -0 -0 -0 0 0 -0 -0 -1 -1 -0 0 -0 -0 -0 nan
nan 0 0 0 0 -0 -0 -0 2 2 -1 -0 0 0 0 0 0 0 0 -0 -0 -0 -0 0 0 -0 -0 -0 -0 -0 -0 0 0 -0 -1 -1 -1 0 -0 -0 0 0 nan
nan 0 0 0 -0 -0 0 -1 -0 2 0 0 0 0 0 0 0 0 0 0 -0 -0 -0 -0 0 0 -0 -0 -0 -0 -0 0 0 -0 -1 -1 -1 -0 -0 0 1 0 nan
nan 0 -0 -0 1 1 1 0 0 1 1 -0 0 0 0 0 0 0 -0 -0 0 -0 -1 -0 0 0 -0 -0 -0 -0 -0 0 0 -0 -0 -0 -1 -1 -0 0 0 -0 nan
nan 0 0 0 -1 1 1 2 1 2 1 0 0 -0 0 -0 -0 0 0 0 0 0 -0 -0 -0 0 -0 -0 -0 -0 -0 -0 -0 -0 -0 -0 -1 -1 -0 -0 -0 -0 nan
nan 0 1 1 -1 -2 -1 -0 1 2 1 0 0 0 0 -0 0 -0 -0 0 0 0 -0 -0 -0 0 0 0 -0 -0 -0 -0 -0 -0 -0 -0 -0 -0 -0 -0 -0 0 nan
nan -0 -0 0 1 0 -0 -0 -1 -0 -1 0 0 0 -0 -0 -0 -0 -0 0 0 0 -0 -0 0 0 -0 -0 0 0 -0 -0 -0 -0 -0 -0 -0 -0 -0 -0 -0 0 nan
nan -0 -0 -0 0 0 1 0 -1 -2 -1 1 0 0 -0 -0 -0 -0 -0 -0 0 0 0 0 0 0 0 -0 -0 -0 -0 -0 -0 -0 -0 -0 -0 -0 -0 0 0 -0 nan
nan 0 0 0 0 0 -0 -1 -1 -1 -0 0 -0 0 0 0 0 0 -0 -0 0 0 0 0 0 0 0 0 0 0 0 -0 -0 -0 -0 -0 -0 -0 -0 0 0 -0 nan
nan 1 1 1 1 1 0 0 0 1 -0 0 0 0 0 0 0 0 0 0 -0 0 0 0 0 0 0 0 0 0 0 0 0 0 -0 -0 0 0 0 0 0 0 nan
nan 1 1 1 0 0 0 0 1 1 1 1 1 1 0 1 0 0 0 -0 -0 0 0 -0 0 0 0 0 0 0 0 0 0 0 0 0 0 0 0 0 0 0 nan
nan 0 1 0 0 0 0 0 1 1 1 1 0 1 0 1 -0 0 0 0 0 0 0 0 0 0 0 0 0 0 0 0 0 0 0 0 0 0 0 0 0 0 nan
nan 0 0 1 1 1 1 1 1 1 1 0 0 0 0 0 0 0 0 0 0 0 0 0 0 0 0 0 0 0 0 0 0 0 0 0 0 0 0 0 0 0 nan
nan 0 0 0 0 1 1 0 0 0 -0 -0 0 -0 -0 -0 0 0 0 0 0 0 0 0 0 0 0 0 0 0 0 0 0 0 0 0 -0 0 0 0 0 0 nan
nan -0 0 0 0 -0 -0 -0 0 0 -0 -0 -0 -0 -0 -1 0 0 0 0 0 0 0 -0 0 0 0 0 0 0 0 0 0 -0 -0 -0 0 0 0 0 0 0 nan
nan -0 -0 -0 0 -0 -0 0 -0 -0 -0 -0 0 0 -0 0 0 0 0 0 0 0 -0 0 0 0 0 0 0 0 0 -0 -0 0 0 0 1 0 0 0 0 0 nan
nan -1 -1 -0 -0 -0 0 -0 -0 0 -0 -0 0 -0 0 0 -0 0 1 0 0 0 -0 0 0 0 0 0 0 0 0 0 0 0 -0 0 1 0 0 0 0 1 nan
nan -0 -0 -1 -1 -1 -1 -1 -0 -1 -1 -0 -0 0 1 0 -0 0 0 -0 0 0 0 0 0 0 0 0 0 0 0 1 1 0 0 0 0 0 1 1 0 0 nan
nan nan nan nan nan nan nan nan nan nan nan nan nan nan nan nan nan nan nan nan nan nan nan nan nan nan nan nan nan nan nan nan nan nan nan nan nan nan nan nan nan nan nan
Wind_Speed
20 27 32 36 33 32 34 21 11 15 20 28 31 30 30 27 24 25 27 28 26 25 26 25 24 23 23 24 24 23 20 19 20 20 21 21 23 22 23 23 23 24 23
22 33 32 33 35 33 32 29 33 25 20 26 30 29 29 28 27 29 31 31 30 28 27 26 25 25 25 25 25 23 21 17 19 20 21 22 21 21 20 21 22 22 22
29 36 38 36 37 37 23 24 27 20 25 28 29 30 31 31 33 33 32 31 30 29 28 28 26 25 24 24 26 24 22 19 17 19 25 27 23 22 20 19 22 22 22
28 34 35 34 36 38 38 24 29 30 26 29 31 33 34 35 35 33 33 32 31 31 29 26 23 21 22 22 23 21 20 18 17 19 24 25 24 22 24 24 24 22 22
30 32 33 30 29 32 30 31 30 32 32 32 34 36 38 37 36 35 34 33 32 30 28 25 23 23 23 22 21 20 19 18 14 16 18 23 23 20 19 20 22 21 19
32 30 29 27 19 27 27 28 33 33 33 34 36 38 39 38 37 36 34 33 31 30 27 22 21 21 21 21 20 18 18 17 14 15 17 18 20 20 19 18 18 19 18
31 25 27 30 25 28 31 32 35 29 35 35 37 39 39 38 37 35 33 32 31 30 26 21 19 19 20 20 17 17 19 18 15 15 17 19 20 20 19 20 19 20 20
28 26 29 31 30 34 38 33 31 34 36 34 38 38 38 37 35 34 33 32 31 29 24 21 21 22 21 17 15 15 16 16 16 15 15 17 18 19 19 18 18 18 18
20 17 22 35 39 34 31 27 30 39 38 34 38 38 38 37 35 33 33 33 31 28 23 20 21 20 19 16 13 13 13 14 15 14 15 17 18 19 18 18 17 16 16
17 18 23 33 27 27 32 34 33 33 38 36 39 38 37 35 33 31 32 31 30 27 24 19 20 18 16 14 12 12 12 15 16 15 15 16 18 17 16 15 14 14 13
14 16 21 25 34 37 32 44 37 39 40 38 39 38 37 35 33 31 30 29 28 25 24 20 18 14 11 10 10 11 11 12 14 14 14 13 13 13 14 12 12 12 13
20 18 12 11 27 46 48 44 37 36 35 35 39 38 36 34 32 30 27 25 24 22 20 20 16 14 11 9 9 9 10 12 12 13 12 9 8 9 8 9 12 12 12
20 21 18 27 17 29 38 41 36 36 38 41 38 38 36 33 31 29 27 23 24 20 20 21 18 15 11 10 10 9 10 9 10 11 10 6 7 7 5 10 10 9 9
19 21 28 25 30 28 35 39 40 37 37 38 39 38 36 32 29 25 22 22 20 17 16 16 14 11 9 8 8 9 10 8 8 9 7 6 5 4 6 5 7 6 5
18 19 23 25 32 38 43 41 42 43 44 39 39 38 35 31 26 24 21 19 17 16 13 13 11 8 7 8 9 8 8 6 6 6 5 5 3 3 3 2 2 5 8
25 19 26 31 36 40 40 46 47 44 41 40 37 37 34 29 24 22 20 19 17 13 11 9 7 6 7 8 9 9 7 5 2 4 4 3 2 1 4 5 5 7 8
33 24 28 36 40 42 43 41 41 40 40 39 38 35 30 25 23 22 18 17 14 11 10 9 8 8 10 9 8 8 6 4 2 1 3 1 1 1 4 7 9 10 11
17 27 27 32 34 37 40 37 38 36 36 36 36 32 27 24 23 19 17 15 12 12 11 9 9 10 11 9 8 9 9 8 7 4 3 3 3 3 3 6 9 11 12
19 28 36 33 32 39 39 39 38 36 37 36 33 29 27 26 24 18 16 13 12 13 13 13 12 12 13 12 10 11 10 10 10 9 6 5 6 7 7 7 9 10 11
16 19 33 35 34 41 38 42 40 37 36 32 31 28 25 25 22 16 15 13 14 16 16 17 15 16 16 13 12 13 13 12 13 12 10 11 11 11 11 12 12 13 12
17 20 24 30 33 35 39 41 41 45 37 34 30 25 25 20 18 17 15 15 16 19 19 19 18 21 20 18 16 16 17 18 18 18 17 16 17 16 16 15 14 16 15
19 21 25 31 30 37 42 44 44 46 37 38 31 35 30 27 26 20 18 19 20 20 23 23 21 22 24 21 22 21 19 22 24 23 23 22 23 20 20 19 18 18 19
20 23 24 29 33 35 34 40 44 47 42 41 39 40 37 29 24 22 22 24 21 23 27 27 26 26 27 25 27 24 11 15 16 21 26 26 27 24 22 22 23 24 23
20 23 26 28 32 34 35 39 41 45 47 46 44 39 39 36 31 26 23 27 24 27 28 31 30 32 30 30 28 31 32 26 18 14 23 27 24 25 24 24 26 28 27
21 23 25 28 32 36 39 40 42 43 43 43 47 47 51 45 43 33 30 28 29 31 32 33 34 37 37 33 32 33 34 34 32 32 25 25 24 25 22 21 23 27 30
26 26 27 30 33 36 38 41 41 41 40 41 44 44 44 48 48 40 33 33 35 33 32 34 37 38 38 36 33 35 35 36 34 35 33 35 32 31 29 27 29 29 28
Wind_Direction
186 174 165 156 154 155 149 179 190 162 160 156 157 155 149 148 146 140 135 135 133 129 126 124 120 116 113 109 104 101 96 98 97 96 102 102 98 95 99 94 91 88 87
176 173 168 163 163 160 160 179 186 198 177 167 163 160 154 148 142 136 134 134 130 129 126 123 120 117 111 105 99 96 92 92 97 101 101 97 95 101 104 104 100 96 96
174 176 174 178 172 167 165 177 173 173 176 169 164 158 147 141 139 135 134 132 132 131 129 127 124 118 112 104 97 87 82 86 93 100 93 88 86 87 91 92 90 92 91
175 179 181 181 178 173 170 188 185 184 181 168 160 152 144 142 139 136 133 132 132 131 128 127 126 117 104 100 92 78 76 85 92 94 98 96 90 89 90 90 87 85 83
182 183 179 179 182 188 180 182 176 170 169 165 157 152 143 141 136 134 132 131 132 130 127 126 119 108 105 102 95 81 76 78 90 95 100 99 94 91 90 88 91 87 83
182 191 198 200 204 184 194 195 175 165 165 160 157 148 143 139 136 135 134 134 134 131 126 121 116 115 110 102 93 80 73 71 82 87 91 94 95 93 87 85 81 82 84
187 186 199 205 209 207 184 186 175 164 167 159 155 149 142 139 138 136 134 135 134 131 127 121 121 122 119 110 96 81 73 65 75 85 90 90 91 90 88 86 85 83 84
210 217 208 202 189 184 182 175 171 162 161 159 156 147 143 140 138 136 132 132 133 133 131 125 118 122 125 119 99 89 78 67 69 78 85 88 92 90 88 87 83 86 83
184 191 189 196 198 193 186 172 171 169 162 160 155 149 145 140 137 133 131 133 136 136 132 129 125 128 127 123 111 94 84 71 66 76 81 89 95 92 90 91 87 82 79
182 186 187 171 178 187 165 181 177 165 164 164 157 152 145 139 135 133 132 135 133 133 135 140 130 127 124 116 106 95 82 71 66 72 77 86 95 94 94 89 82 76 72
180 184 180 182 184 182 190 168 166 171 168 163 157 153 146 141 138 134 133 137 136 135 137 143 143 143 138 125 113 99 85 73 63 66 70 74 98 100 100 91 88 89 85
161 151 141 189 163 173 163 159 167 168 165 166 162 156 148 143 136 131 130 137 138 138 140 147 151 152 149 135 125 105 90 80 66 64 60 54 78 98 108 107 113 104 83
159 159 149 135 141 141 150 156 170 177 174 170 162 156 150 144 138 138 142 144 142 144 141 143 147 144 135 133 128 118 105 88 74 66 58 55 101 125 110 133 126 106 50
175 158 162 156 158 166 172 169 167 174 175 172 166 160 153 149 147 147 147 147 145 141 145 147 151 145 135 135 138 132 118 100 75 61 55 69 134 146 143 133 131 118 38
200 188 177 177 171 172 167 164 169 177 180 177 167 163 158 155 153 156 155 152 153 148 155 152 148 155 151 156 157 156 134 118 88 49 41 61 96 151 138 285 214 328 340
212 199 195 179 176 172 168 175 180 177 180 174 168 164 164 161 160 163 161 167 162 156 160 165 155 160 169 165 172 171 163 144 112 32 19 27 71 130 200 240 247 285 320
185 200 193 187 183 174 173 177 180 177 177 171 166 166 169 170 169 170 164 175 168 171 173 181 180 175 180 182 186 192 190 189 214 329 355 346 335 220 251 253 259 277 299
197 187 194 191 183 182 176 179 177 175 174 169 169 172 173 176 178 167 175 179 175 185 197 209 204 195 198 202 210 215 222 226 242 265 307 293 260 244 265 264 269 279 288
204 206 187 192 188 181 178 182 177 176 176 177 175 174 173 177 176 177 180 178 194 201 209 220 215 221 224 224 234 241 240 243 255 260 273 282 277 271 282 276 274 272 278
205 206 198 194 187 183 182 185 184 182 182 183 181 182 182 182 186 186 191 192 217 222 221 219 224 234 238 249 258 250 250 253 258 262 276 282 282 282 287 281 279 280 281
198 198 205 203 202 195 191 191 185 183 186 183 188 187 196 192 191 198 210 221 232 238 237 229 231 238 242 237 243 245 248 251 255 258 260 266 274 275 276 279 277 276 277
202 199 200 203 198 190 191 196 194 190 199 198 200 200 215 210 216 212 225 235 239 245 235 234 240 242 235 241 239 246 247 252 255 255 258 263 269 265 266 272 275 278 278
206 206 201 202 196 198 202 203 204 205 210 211 208 208 215 211 213 222 233 238 245 247 242 239 241 245 244 250 249 239 225 242 261 260 266 264 262 260 265 273 278 283 276
209 204 207 203 201 206 211 209 210 211 214 215 211 215 215 225 226 234 242 239 246 250 247 243 244 246 248 251 248 245 240 256 258 261 262 265 262 256 259 268 270 276 277
212 209 204 206 204 207 213 214 214 222 221 220 225 227 227 229 227 236 245 246 249 253 254 248 246 246 249 248 248 249 249 253 257 255 262 267 254 253 259 264 267 275 275
214 210 209 204 204 203 208 211 215 215 218 222 225 222 222 219 227 235 245 249 252 255 252 253 252 253 251 253 249 253 256 254 264 257 263 272 263 261 263 269 287 280 266
Height
1491 1494 1495 1496 1502 1507 1505 1519 1520 1522 1522 1518 1518 1517 1517 1519 1524 1522 1525 1528 1531 1533 1535 1538 1540 1542 1543 1544 1546 1546 1548 1549 1547 1550 1548 1551 1550 1552 1553 1552 1553 1553 1554
1489 1493 1496 1498 1500 1505 1503 1516 1517 1522 1524 1522 1519 1520 1520 1519 1523 1525 1524 1527 1529 1533 1536 1539 1542 1543 1546 1547 1549 1550 1550 1553 1550 1551 1553 1552 1554 1553 1555 1555 1556 1557 1556
1489 1492 1493 1497 1497 1499 1509 1518 1517 1519 1522 1523 1521 1522 1521 1520 1524 1525 1527 1529 1530 1534 1537 1539 1542 1546 1548 1551 1552 1552 1553 1555 1555 1554 1556 1555 1558 1557 1556 1556 1558 1558 1559
1490 1493 1495 1495 1497 1498 1495 1522 1518 1516 1520 1525 1524 1522 1518 1523 1525 1526 1529 1531 1533 1536 1538 1542 1543 1546 1550 1553 1554 1555 1556 1556 1558 1556 1559 1557 1560 1561 1560 1560 1560 1560 1561
1488 1493 1496 1498 1499 1501 1503 1515 1518 1518 1519 1526 1524 1525 1521 1525 1526 1529 1530 1533 1536 1539 1541 1544 1545 1548 1551 1554 1557 1557 1559 1557 1561 1559 1560 1560 1561 1563 1563 1562 1563 1562 1563
1486 1491 1494 1498 1499 1502 1505 1514 1517 1517 1520 1526 1528 1527 1524 1524 1528 1531 1532 1535 1538 1541 1545 1547 1549 1550 1553 1555 1559 1561 1560 1561 1563 1563 1562 1562 1562 1563 1564 1565 1565 1565 1564
1484 1488 1493 1495 1497 1502 1506 1507 1518 1512 1522 1527 1529 1528 1525 1527 1530 1531 1533 1537 1540 1543 1546 1549 1551 1553 1555 1557 1559 1562 1564 1564 1565 1564 1564 1564 1565 1566 1566 1568 1569 1568 1569
1482 1484 1488 1493 1496 1498 1506 1510 1520 1516 1523 1530 1530 1529 1527 1529 1532 1533 1534 1539 1542 1547 1548 1550 1554 1555 1556 1560 1562 1563 1566 1566 1568 1567 1567 1566 1568 1568 1568 1570 1571 1571 1571
1481 1483 1486 1491 1492 1498 1506 1513 1519 1516 1521 1530 1529 1530 1531 1531 1535 1536 1537 1541 1545 1548 1550 1551 1555 1557 1558 1561 1564 1565 1567 1568 1569 1569 1568 1568 1570 1570 1572 1573 1573 1573 1573
1481 1484 1484 1489 1491 1496 1497 1509 1524 1516 1522 1529 1528 1531 1534 1535 1536 1539 1539 1545 1546 1549 1551 1553 1555 1558 1561 1562 1565 1566 1568 1569 1570 1570 1569 1570 1572 1572 1574 1575 1575 1575 1575
1480 1482 1486 1489 1489 1491 1497 1504 1515 1518 1522 1527 1528 1533 1533 1535 1538 1540 1543 1548 1548 1551 1552 1555 1557 1560 1562 1564 1566 1567 1568 1570 1571 1571 1571 1572 1573 1575 1576 1577 1577 1577 1577
1482 1481 1485 1485 1484 1482 1492 1503 1515 1522 1526 1528 1530 1532 1533 1537 1538 1541 1545 1551 1551 1551 1553 1558 1560 1562 1564 1565 1567 1567 1569 1570 1571 1573 1574 1574 1574 1576 1577 1578 1579 1579 1577
1483 1484 1487 1489 1491 1496 1497 1505 1514 1522 1526 1530 1530 1531 1534 1538 1539 1542 1546 1550 1550 1552 1555 1561 1563 1564 1564 1565 1567 1568 1569 1571 1571 1573 1575 1577 1576 1578 1577 1578 1579 1578 1577
1484 1488 1490 1490 1488 1496 1499 1506 1513 1523 1528 1528 1528 1530 1534 1537 1540 1543 1546 1550 1551 1552 1558 1561 1563 1565 1566 1567 1568 1568 1569 1571 1574 1574 1575 1577 1579 1578 1578 1579 1579 1579 1579
1483 1486 1489 1490 1491 1497 1499 1503 1512 1521 1527 1527 1529 1531 1534 1537 1541 1546 1547 1551 1553 1555 1560 1562 1563 1566 1567 1568 1567 1569 1569 1571 1573 1575 1576 1577 1578 1578 1578 1578 1579 1579 1579
1481 1483 1487 1490 1493 1496 1500 1506 1512 1518 1523 1526 1528 1532 1535 1539 1542 1546 1548 1552 1555 1557 1560 1563 1563 1566 1567 1568 1568 1569 1570 1572 1573 1575 1575 1576 1576 1576 1578 1578 1578 1579 1578
1478 1480 1484 1489 1491 1495 1502 1509 1515 1518 1523 1525 1528 1534 1537 1540 1543 1547 1548 1553 1554 1558 1560 1562 1563 1566 1568 1569 1569 1570 1572 1572 1573 1575 1575 1575 1576 1575 1577 1578 1577 1578 1578
1481 1482 1486 1491 1495 1500 1506 1510 1515 1520 1524 1528 1530 1534 1536 1540 1546 1545 1550 1553 1553 1557 1560 1562 1563 1566 1568 1569 1569 1571 1572 1572 1573 1574 1574 1575 1575 1575 1575 1575 1576 1576 1577
1481 1483 1486 1493 1494 1497 1505 1510 1515 1519 1525 1529 1530 1533 1536 1540 1543 1545 1549 1551 1553 1557 1559 1562 1563 1567 1568 1569 1569 1570 1571 1571 1572 1573 1574 1574 1574 1575 1574 1574 1573 1575 1575
1482 1484 1486 1489 1494 1498 1504 1509 1513 1519 1524 1528 1530 1534 1536 1540 1539 1545 1548 1549 1554 1555 1557 1558 1561 1564 1567 1570 1570 1570 1570 1570 1571 1571 1571 1572 1572 1572 1572 1572 1571 1572 1572
1479 1483 1485 1488 1492 1496 1503 1508 1512 1516 1521 1526 1530 1533 1537 1537 1539 1543 1547 1549 1552 1554 1556 1558 1559 1562 1565 1566 1568 1567 1567 1568 1568 1568 1568 1569 1569 1569 1568 1569 1569 1569 1569
1475 1479 1483 1487 1490 1496 1502 1506 1512 1516 1520 1525 1529 1532 1536 1537 1538 1542 1544 1547 1549 1552 1554 1556 1558 1560 1562 1563 1564 1564 1564 1565 1563 1562 1563 1563 1565 1566 1565 1565 1566 1566 1565
1472 1476 1480 1485 1488 1494 1500 1505 1510 1515 1519 1523 1526 1529 1533 1534 1537 1540 1543 1546 1548 1549 1551 1553 1554 1557 1558 1559 1559 1561 1559 1558 1558 1558 1557 1557 1557 1558 1559 1559 1561 1561 1561
1471 1475 1479 1482 1486 1491 1498 1502 1506 1512 1513 1519 1522 1525 1528 1531 1534 1538 1541 1544 1543 1548 1547 1549 1550 1553 1554 1553 1554 1554 1554 1554 1554 1554 1555 1553 1553 1553 1554 1555 1555 1555 1555
1469 1472 1475 1479 1482 1489 1494 1498 1501 1507 1508 1514 1519 1521 1524 1528 1531 1534 1538 1538 1540 1543 1543 1545 1546 1547 1547 1547 1548 1548 1549 1549 1550 1550 1549 1550 1549 1549 1549 1550 1550 1550 1550
1466 1469 1473 1477 1481 1485 1488 1491 1494 1498 1503 1508 1512 1515 1517 1521 1526 1528 1530 1532 1536 1536 1537 1539 1540 1540 1540 1541 1542 1543 1543 1543 1543 1543 1544 1544 1544 1545 1545 1544 1544 1542 1543